Weather in Golubaya

Russia / Amur Oblast     51°16′45″N   127°49′13″E
temp.,
°C
wind,
m/s
gust,
m/s
humid.,
%
clouds,
%
prec.,
mm/h
press.,
hPa
HPBL,
m
17 may, mon
mon1700:00+11se33521 0.0 99727
03:00+11wnw6145461 0.0 997220
06:00+10wnw613625 0.0 998314
09:00+14nw79527 0.0 999804
12:00+17nw68349 0.0 10002110
15:00+19nw582722 0.0 10002766
18:00+18nne4529100 0.0 999611
21:00+13nnw3442100 0.2 100181
18 may, tue
tue1800:00+8e5777100 3.5 1001375
03:00+7e4886100 3.9 999416
06:00+7e468184 0.0 998366
09:00+11sw457699 0.0 998793
12:00+14w686498 0.1 9981386
15:00+15nw483855 0.3 9991906
18:00+16nnw6831100 0.0 9991833
21:00+10n5103193 0.0 1003224
19 may, wed
wed1900:00+8ne354197 0.0 100384
03:00+6e3749100 0.0 1003158
06:00+6e26586 0.1 1003187
09:00+8nne655670 0.1 1004692
12:00+13wnw254491 0.0 10042205
15:00+16w272399 0.0 10033082
18:00+16wnw4523100 0.0 10031809
21:00+11ese333672 0.0 100429
20 may, thu
thu2000:00+9se61456100 0.0 1003359
03:00+9sse71765100 1.0 1001672
06:00+7e5789100 1.9 1001271
09:00+10wnw237593 1.9 1002339
12:00+13nnw6761100 0.0 10041369
15:00+14n4452100 0.1 10061375
18:00+12n5560100 0.0 10081016
21:00+8ne587680 0.0 1010307
21 may, fri
fri2100:00+5ene498745 0.0 1010260
03:00+5ne598999 0.0 1010224
06:00+6ne487853 0.0 1010284
09:00+9ene6106266 0.0 1009446
12:00+16e67405 0.0 1007863
15:00+20ese57325 0.0 10031242
18:00+21se35390 0.0 1001781
21:00+15ene33550 0.0 100130